sat.trackr.live / text

‹ back to catalog

STARLINK-34814

NORAD 65100 · 2025-167Y

PAYLOAD ACTIVE UNKNOWN

§ Identity

Operator
Country
US
Launch date
2025-08-04
Launch site
AFETR
Launch vehicle
Mass (kg)
RCS (m²)

Purposes: comms

External: N2YO · Heavens-Above · Gunter

§ Orbital elements

Epoch: 2026-09-20T13:19:00.453504Z

Period
93.85 min
Inclination
53.1562°
Eccentricity
0.0002083
Mean motion
15.34394697 rev/d
Perigee alt
461.3 km
Apogee alt
464.1 km
Semi-major
6,840.9 km
B*
6.9929e-4
RAAN
197.3383°
Arg perigee
94.1780°
Mean anomaly
265.9461°
Rev number
6,337

§ Raw data

STARLINK-348141 65100U 25167Y   26263.55486636  .00023320  00000+0  69929-3 0  99922 65100  53.1562 197.3383 0002083  94.1780 265.9461 15.34394697 63375

JSON: /api/v1/satellites/65100 · /tle

For live sub-satellite position, see the globe view (requires WebGL).

§ Visibility from observer

Set your observer location to see the next 7 days of passes ≥ 10°. The values pass through the URL so the page stays shareable.

No JS? Fill the form by hand. The geolocation button needs JavaScript.